GW6206 Weather Reports


time (UTC)temp
C
wind
direction
speed
KPH
gust
KPH
rain 1hr
cm
rain 24hr
cm
rain mn
cm
humidity
%
barometer
mb
20260508181516 21 293 8.0 22.5 0.00 0.00 0.00 30 1017.7
20260508180516 20 338 6.4 16.1 0.00 0.00 0.00 31 1017.4
20260508175517 21 293 8.0 19.3 0.00 0.00 0.00 36 1017.8
20260508174517 20 270 8.0 17.7 0.00 0.00 0.00 37 1017.9
20260508173516 20 293 4.8 9.7 0.00 0.00 0.00 40 1018.1
20260508172516 20 225 3.2 8.0 0.00 0.00 0.00 45 1017.9
20260508171516 20 203 4.8 12.9 0.00 0.00 0.00 43 1017.8
20260508170517 19 248 1.6 8.0 0.00 0.00 0.00 47 1017.6
20260508165536 19 203 1.6 6.4 0.00 0.00 0.00 44 1017.5
20260508164516 18 225 1.6 6.4 0.00 0.00 0.00 47 1017.6
20260508163516 18 203 1.6 6.4 0.00 0.00 0.00 44 1017.2
20260508162516 17 203 3.2 6.4 0.00 0.00 0.00 47 1017.5
20260508161516 17 0.0 3.2 0.00 0.00 0.00 48 1017.2
20260508160516 16 203 1.6 6.4 0.00 0.00 0.00 50 1017.2
20260508155516 16 0.0 3.2 0.00 0.00 0.00 52 1016.9
20260508154518 16 203 1.6 4.8 0.00 0.00 0.00 51 1016.8
20260508153516 16 180 1.6 6.4 0.00 0.00 0.00 54 1016.8
20260508152518 15 180 1.6 4.8 0.00 0.00 0.00 56 1017.2
20260508151536 15 0.0 3.2 0.00 0.00 0.00 53 1016.7
20260508150516 15 0.0 1.6 0.00 0.00 0.00 51 1016.5
20260508145519 14 0.0 3.2 0.00 0.00 0.00 55 1017.3
20260508144517 13 0.0 0.0 0.00 0.00 0.00 56 1017.0
20260508143516 13 0.0 1.6 0.00 0.00 0.00 57 1017.0
20260508142537 13 0.0 0.0 0.00 0.00 0.00 53 1017.2
20260508141517 12 0.0 3.2 0.00 0.00 0.00 59 1017.2
20260508140516 11 0.0 0.0 0.00 0.00 0.00 57 1016.7
20260508135519 11 0.0 1.6 0.00 0.00 0.00 58 1016.7
20260508134516 11 68 1.6 4.8 0.00 0.00 0.00 59 1016.7
20260508133516 11 0.0 0.0 0.00 0.00 0.00 56 1016.6
20260508132538 11 0.0 3.2 0.00 0.00 0.00 58 1016.5
20260508131536 11 68 1.6 3.2 0.00 0.00 0.00 58 1016.4
20260508130516 11 0.0 3.2 0.00 0.00 0.00 60 1016.4
20260508125516 11 68 3.2 4.8 0.00 0.00 0.00 59 1016.3
20260508124536 11 68 1.6 3.2 0.00 0.00 0.00 57 1016.3
20260508123518 11 68 1.6 6.4 0.00 0.00 0.00 56 1016.1
20260508122516 11 0.0 0.0 0.00 0.00 0.00 55 1016.3
20260508121516 11 68 1.6 3.2 0.00 0.00 0.00 54 1016.3
20260508120518 11 68 1.6 3.2 0.00 0.00 0.00 55 1016.3
20260508115517 11 68 1.6 4.8 0.00 0.00 0.00 54 1016.2
20260508114519 11 0.0 0.0 0.00 0.00 0.00 54 1016.1
20260508113516 11 0.0 0.0 0.00 0.00 0.00 54 1016.0
20260508112516 11 0.0 1.6 0.00 0.00 0.00 54 1016.2
20260508111518 11 68 3.2 6.4 0.00 0.00 0.00 53 1016.1
20260508110516 11 68 1.6 3.2 0.00 0.00 0.00 52 1016.1
20260508105537 11 68 1.6 6.4 0.00 0.00 0.00 52 1015.7
20260508104516 12 0.0 0.0 0.00 0.00 0.00 52 1015.7
20260508103536 12 68 3.2 8.0 0.00 0.00 0.00 51 1016.1
20260508102517 12 0.0 3.2 0.00 0.00 0.00 51 1016.0
20260508101517 12 68 1.6 3.2 0.00 0.00 0.00 50 1015.9
20260508100516 12 68 1.6 4.8 0.00 0.00 0.00 50 1016.3
20260508095516 12 0.0 4.8 0.00 0.00 0.00 50 1016.3
20260508094516 12 68 1.6 4.8 0.00 0.00 0.00 52 1016.6
20260508093516 12 68 3.2 6.4 0.00 0.00 0.00 52 1016.2
20260508092518 12 68 1.6 6.4 0.00 0.00 0.00 52 1016.3
20260508091516 12 68 3.2 6.4 0.00 0.00 0.00 51 1016.3
20260508090517 13 90 1.6 4.8 0.00 0.00 0.00 49 1016.2
20260508085518 13 0.0 4.8 0.00 0.00 0.00 49 1016.2
20260508084516 13 0.0 3.2 0.00 0.00 0.00 49 1016.4
20260508083558 13 113 4.8 6.4 0.00 0.00 0.00 48 1016.4
20260508082516 13 90 1.6 6.4 0.00 0.00 0.00 48 1016.1
20260508081516 13 0.0 3.2 0.00 0.00 0.00 47 1016.0
20260508080538 13 0.0 3.2 0.00 0.00 0.00 46 1016.0
20260508075517 13 158 1.6 4.8 0.00 0.00 0.00 46 1015.9
20260508074516 13 0.0 0.0 0.00 0.00 0.00 46 1015.9
20260508073516 13 0.0 3.2 0.00 0.00 0.00 46 1016.1
20260508072516 13 0.0 0.0 0.00 0.00 0.00 44 1015.7
20260508071516 14 0.0 0.0 0.00 0.00 0.00 44 1016.1
20260508070536 14 0.0 0.0 0.00 0.00 0.00 42 1016.1
20260508065518 14 0.0 3.2 0.00 0.00 0.00 41 1015.4
20260508064516 15 0.0 1.6 0.00 0.00 0.00 41 1015.8
20260508063518 15 45 4.8 8.0 0.00 0.00 0.00 40 1015.7
20260508062516 15 45 4.8 6.4 0.00 0.00 0.00 40 1015.5
20260508061516 15 45 6.4 8.0 0.00 0.00 0.00 40 1015.4
20260508060516 15 45 6.4 8.0 0.00 0.00 0.00 39 1015.4
20260508055516 15 68 6.4 8.0 0.00 0.00 0.00 39 1014.7
20260508054518 15 45 8.0 9.7 0.00 0.00 0.00 40 1014.7
20260508053516 16 68 4.8 6.4 0.00 0.00 0.00 38 1015.0
20260508052558 16 68 4.8 6.4 0.00 0.00 0.00 38 1015.0
20260508051516 16 68 4.8 8.0 0.00 0.00 0.00 38 1015.1
20260508050536 16 45 8.0 9.7 0.00 0.00 0.00 39 1014.8
20260508045517 15 45 4.8 8.0 0.00 0.00 0.00 39 1014.7
20260508044516 15 45 6.4 9.7 0.00 0.00 0.00 39 1014.8
20260508043518 15 68 8.0 11.3 0.00 0.00 0.00 40 1014.9
20260508042516 16 68 6.4 9.7 0.00 0.00 0.00 39 1014.3
20260508041536 16 68 1.6 6.4 0.00 0.00 0.00 38 1014.3
20260508040558 16 68 3.2 8.0 0.00 0.00 0.00 38 1014.6
20260508035516 16 45 3.2 8.0 0.00 0.00 0.00 36 1013.8
20260508034537 16 45 1.6 4.8 0.00 0.00 0.00 37 1013.8
20260508033516 16 45 3.2 4.8 0.00 0.00 0.00 36 1013.7
20260508032518 16 45 3.2 6.4 0.00 0.00 0.00 37 1013.6
20260508031517 16 45 3.2 4.8 0.00 0.00 0.00 38 1013.6
20260508030516 17 0 3.2 6.4 0.00 0.00 0.00 38 1014.0
20260508025518 18 0 3.2 6.4 0.00 0.00 0.00 34 1013.6
20260508024536 18 0 3.2 4.8 0.00 0.00 0.00 32 1013.8
20260508023516 19 0 4.8 8.0 0.00 0.00 0.00 31 1013.8
20260508022518 20 0 3.2 6.4 0.00 0.00 0.00 29 1013.6
20260508021517 21 0 3.2 6.4 0.00 0.00 0.00 27 1014.0
20260508020516 22 315 1.6 4.8 0.00 0.00 0.00 26 1013.9
20260508015517 22 315 4.8 6.4 0.00 0.00 0.00 24 1013.9
20260508014536 22 293 4.8 8.0 0.00 0.00 0.00 24 1014.0
20260508013537 22 315 3.2 8.0 0.00 0.00 0.00 23 1014.0
20260508012516 22 315 4.8 9.7 0.00 0.00 0.00 24 1014.1
20260508011516 22 315 3.2 6.4 0.00 0.00 0.00 25 1014.3
20260508010516 22 315 4.8 11.3 0.00 0.00 0.00 25 1014.4
20260508005516 22 338 3.2 8.0 0.00 0.00 0.00 26 1014.2
20260508004558 22 293 6.4 12.9 0.00 0.00 0.00 24 1014.1
20260508003517 22 293 3.2 8.0 0.00 0.00 0.00 25 1014.1
20260508002516 22 293 1.6 4.8 0.00 0.00 0.00 24 1014.3
20260508001539 23 293 4.8 11.3 0.00 0.00 0.00 23 1014.3
20260508000516 23 293 1.6 4.8 0.00 0.00 0.00 24 1014.8
20260507235518 23 315 3.2 8.0 0.00 0.00 0.00 23 1014.9
20260507234516 23 338 6.4 14.5 0.00 0.00 0.00 23 1015.0
20260507233518 23 293 8.0 17.7 0.00 0.00 0.00 22 1015.1
20260507232516 23 315 11.3 22.5 0.00 0.00 0.00 22 1015.8
20260507231516 23 315 6.4 12.9 0.00 0.00 0.00 22 1015.8
20260507230518 23 315 16.1 24.1 0.00 0.00 0.00 23 1015.9
20260507225516 24 248 8.0 16.1 0.00 0.00 0.00 25 1016.2
20260507224516 23 293 4.8 12.9 0.00 0.00 0.00 23 1016.3
20260507223619 23 248 9.7 22.5 0.00 0.00 0.00 23 1016.1
20260507222517 23 338 6.4 17.7 0.00 0.00 0.00 24 1016.2
20260507221516 23 338 8.0 14.5 0.00 0.00 0.00 22 1016.4
20260507220558 23 338 4.8 9.7 0.00 0.00 0.00 25 1016.5
20260507215538 23 293 4.8 11.3 0.00 0.00 0.00 24 1016.7
20260507214538 23 225 4.8 16.1 0.00 0.00 0.00 23 1016.8
20260507213539 24 293 3.2 14.5 0.00 0.00 0.00 22 1017.4
20260507212518 25 270 1.6 6.4 0.00 0.00 0.00 21 1017.6
20260507211516 24 135 4.8 8.0 0.00 0.00 0.00 26 1017.6
20260507210536 24 180 6.4 11.3 0.00 0.00 0.00 22 1017.7
20260507205518 24 180 8.0 12.9 0.00 0.00 0.00 25 1017.9
20260507204517 23 68 3.2 11.3 0.00 0.00 0.00 24 1017.7
20260507203536 23 180 8.0 17.7 0.00 0.00 0.00 23 1017.8
20260507202538 22 158 8.0 17.7 0.00 0.00 0.00 25 1018.5
20260507201516 22 113 4.8 11.3 0.00 0.00 0.00 27 1018.4
20260507200516 22 68 1.6 8.0 0.00 0.00 0.00 24 1018.4
20260507195518 22 135 6.4 12.9 0.00 0.00 0.00 23 1019.0
20260507194517 23 203 3.2 8.0 0.00 0.00 0.00 26 1019.5
20260507193519 22 135 3.2 11.3 0.00 0.00 0.00 27 1019.3
20260507192516 22 113 3.2 8.0 0.00 0.00 0.00 24 1019.4
20260507191516 21 203 6.4 11.3 0.00 0.00 0.00 26 1019.3
20260507190516 21 90 1.6 4.8 0.00 0.00 0.00 23 1019.3
20260507185517 21 158 3.2 12.9 0.00 0.00 0.00 25 1019.9
20260507184518 21 158 4.8 11.3 0.00 0.00 0.00 25 1019.7
20260507183516 20 113 3.2 14.5 0.00 0.00 0.00 27 1019.6
20260507182516 20 135 4.8 12.9 0.00 0.00 0.00 24 1019.7